WHDW 03-05

operational
NORAD ID: 63691 Int'l Des: 2025-086 Owner: ZXW Country: CN
LEOCIRCULARPOLARONEWEB_TYPE

关于 WHDW 03-05

正在加载描述...

实时位置

正在加载3D地球...

即将过境

高度历史

Altitude vs Time

uPlot chart will show altitude changes over time

两行轨道根数

1 63691U 25086E 26063.12603882 .00000096 00000-0 18852-3 0 9995
2 63691 86.5167 348.6045 0001761 92.7062 267.4274 13.24420268 40953
Epoch: Mar 4, 2026 • Age: 19 hours

当前状态

高度 1193.8 km
速度 7.26 km/s
星下点 -64.52°S, 106.73°W
发射日期 Apr 28, 2025
运行时间 0.8 years
类型 other

技术详情

分类 Payload
质量 800.00 kg
干质量 800.00 kg
总质量 800.00 kg
长度 3.00 m
直径 1.00 m
跨度 10.00 m
形状 Box + 2 Pan
制造商 CAST
平台类型 Xingwang CL
阶段状态 In Orbit
所有者/国家 ZXW/CN

大型星座

Loading constellations...